Flag for Germany Weather past 2 weeks in Heidelberg, Baden-Württemberg, Germany

Now
70 °F

Sunny.


Feels Like: 70 °F
Forecast: 42 / 75 °F
Wind: 3 mph from North

Location: Baden Wurttemberg - Neuostheim


UV Index: 3 (Moderate)

Visibility: 10 mi


Pressure: 30.07 "Hg

Humidity: 35%

Dew point: 41 °F

Location of HeidelbergLocation

Historic Weather in Heidelberg

°F

Heidelberg temperature yesterday

Maximum temperature yesterday: 66 °F (at 5:20 PM)
Minimum temperature yesterday: 50 °F (at 5:20 AM)
Average temperature yesterday: 58 °F

Past Weeks' High & Low Weather Summary

 TemperatureHumidityPressure
High72 °F (Apr 23, 1:20 PM)94% (Apr 12, 7:50 AM)30.42 "Hg (Apr 12, 7:50 AM)
Low34 °F (Apr 17, 6:50 AM)23% (Apr 17, 6:50 PM)29.59 "Hg (Apr 21, 4:20 PM)
Average56 °F54%30.05 "Hg
* Reported Apr 8 2:20 PM — Apr 23 2:20 PM, Heidelberg, Weather by CustomWeather, © 2014

Note: Actual official high and low records may vary slightly from our data, if they occured in-between our weather recording intervals... More about our weather records

Advertising

Historic Weather Conditions — Data for Previous 24 hours

 ConditionsComfort  
Time TempWeatherWind HumidityBarometerVisibility
2:20 PM
Apr 23
72 °FPassing clouds.6 mph36%30.07 "HgN/A
1:50 PM70 °FPassing clouds.6 mph38%30.07 "HgN/A
1:20 PM72 °FSunny.3 mph36%30.09 "Hg10 mi
12:50 PM70 °FPassing clouds.5 mph40%30.09 "HgN/A
12:20 PM68 °FSunny.2 mph46%30.09 "Hg10 mi
11:50 AM66 °FSunny.2 mph52%30.09 "Hg10 mi
11:20 AM64 °FSunny.3 mph56%30.12 "Hg10 mi
10:50 AM63 °FSunny.3 mph59%30.12 "Hg10 mi
10:20 AM61 °FSunny.2 mph63%30.09 "Hg10 mi
9:50 AM59 °FSunny.2 mph68%30.09 "Hg10 mi
9:20 AM57 °FSunny.1 mph72%30.09 "Hg10 mi
8:50 AM55 °FSunny.1 mph77%30.09 "Hg10 mi
8:20 AM54 °FSunny.2 mph77%30.09 "Hg10 mi
7:50 AM50 °FSunny.3 mph88%30.09 "Hg10 mi
7:20 AM48 °FSunny.No wind87%30.09 "Hg10 mi
6:50 AM46 °FClear.1 mph93%30.09 "Hg10 mi
6:20 AM45 °FClear.No wind93%30.09 "Hg10 mi
5:50 AM45 °FClear.1 mph87%30.07 "Hg10 mi
10:20 PM
Apr 22
52 °FClear.2 mph77%29.98 "Hg10 mi
9:50 PM55 °FClear.1 mph72%29.98 "Hg10 mi
9:20 PM55 °FSunny.1 mph72%29.98 "Hg10 mi
8:50 PM57 °FSunny.2 mph67%29.95 "Hg10 mi
7:50 PM64 °FSunny.3 mph49%29.95 "Hg10 mi
7:20 PM64 °FSunny.2 mph49%29.92 "Hg10 mi
6:50 PM66 °FSunny.2 mph46%29.92 "Hg10 mi
6:20 PM64 °FPassing clouds.5 mph49%29.92 "HgN/A
5:50 PM66 °FSunny.2 mph46%29.92 "Hg10 mi
5:20 PM66 °FSunny.3 mph49%29.92 "Hg10 mi
4:50 PM64 °FSunny.3 mph52%29.92 "Hg10 mi
4:20 PM64 °FSunny.3 mph49%29.92 "Hg10 mi
3:50 PM64 °FSunny.3 mph49%29.92 "Hg10 mi
3:20 PM63 °FSunny.3 mph56%29.92 "Hg10 mi
Weather by CustomWeather, © 2014

See weather overview